Change the Weather History Date:

Thursday, January 30, 2014

  Actual Average Record
Temperature  
Mean Temperature 38 °F 30 °F  
Max Temperature 49 °F 43 °F 66 °F (1971)
Min Temperature 27 °F 18 °F -19 °F (1979)
Degree Days  
Heating Degree Days 27 35  
Month to date heating degree days 877 1056  
Since 1 July heating degree days 3790 3884  
Cooling Degree Days 0 0  
Month to date cooling degree days 0 0  
Year to date cooling degree days 0 0  
Moisture  
Dew Point 18 °F    
Average Humidity 46    
Maximum Humidity 63    
Minimum Humidity 28    
Precipitation  
Precipitation T in 0.07 in 1.21 in (1922)
Month to date precipitation T 1.98  
Year to date precipitation T 1.98  
Snow  
Snow T in 0.80 in 9.60 in (1980)
Month to date snowfall T 22.4  
Since 1 July snowfall 29.9 51.5  
Snow Depth 0.00 in    
Sea Level Pressure  
Sea Level Pressure 29.81 in    
Wind  
Wind Speed 15 mph (SW)    
Max Wind Speed 26 mph    
Max Gust Speed 34 mph    
Visibility 10 miles    
Events      
T = Trace of Precipitation, MM = Missing Value Source: NWS Daily Summary

Daily Weather History Graph

Daily Weather History Graph

Search for Another Location

Airport or City:

Trip Planner

Search our weather history database for the weather conditions in past years. The results will help you decide how hot, cold, wet, or windy it might be!

Date:

Astronomy

Jan. 30, 2014 Rise Set
Actual Time 7:27 AM MST 5:53 PM MST
Civil Twilight 7:00 AM MST 6:20 PM MST
Nautical Twilight 6:29 AM MST 6:50 PM MST
Astronomical Twilight 6:00 AM MST 7:20 PM MST
Moon 6:57 AM MST (1/30) 6:06 PM MST (1/30)
Length of Visible Light 11h 19m
Length of Day
10h 26m
Waning Crescent, 0% of the Moon is Illuminated
Jan 30
Waning Crescent
Jan 30
New
Feb 6
First Quarter
Feb 14
Full
Feb 22
Last Quarter

Hourly Weather History & Observations

Time (MST) Temp. Windchill Dew Point Humidity Pressure Visibility Wind Dir Wind Speed Gust Speed Precip Events Conditions
12:57 AM 35.1 °F 28.6 °F 17.1 °F 48% 29.87 in 10.0 mi SW 8.1 mph - N/A   Clear
1:57 AM 33.1 °F 26.9 °F 17.1 °F 52% 29.86 in 10.0 mi SW 6.9 mph - N/A   Clear
2:57 AM 30.9 °F - 16.0 °F 54% 29.85 in 10.0 mi Calm Calm - N/A   Clear
3:57 AM 28.9 °F - 17.1 °F 61% 29.86 in 10.0 mi Calm Calm - N/A   Clear
4:57 AM 33.1 °F 26.1 °F 16.0 °F 50% 29.85 in 10.0 mi SSW 8.1 mph - N/A   Clear
5:57 AM 34.0 °F 28.8 °F 16.0 °F 48% 29.88 in 10.0 mi WSW 5.8 mph - N/A   Clear
6:57 AM 28.0 °F - 18.0 °F 66% 29.91 in 10.0 mi Calm Calm - N/A   Clear
7:57 AM 28.9 °F 25.2 °F 17.1 °F 61% 29.91 in 10.0 mi SW 3.5 mph - N/A   Clear
8:57 AM 41.0 °F 33.1 °F 15.1 °F 35% 29.86 in 10.0 mi SW 15.0 mph - N/A   Clear
9:57 AM 45.0 °F 36.9 °F 14.0 °F 29% 29.85 in 10.0 mi SSW 20.7 mph - N/A   Clear
10:57 AM 46.9 °F - 15.1 °F 28% 29.87 in 10.0 mi SSW 19.6 mph 26.5 mph N/A   Overcast
11:57 AM 46.9 °F - 15.1 °F 28% 29.84 in 10.0 mi SSW 20.7 mph 34.5 mph N/A   Mostly Cloudy
12:57 PM 46.9 °F - 17.1 °F 30% 29.81 in 10.0 mi SSW 19.6 mph 29.9 mph N/A   Clear
1:57 PM 46.9 °F - 18.0 °F 32% 29.79 in 10.0 mi SW 15.0 mph 24.2 mph N/A   Clear
2:57 PM 46.9 °F - 19.9 °F 34% 29.79 in 10.0 mi SSW 21.9 mph 29.9 mph N/A   Overcast
3:57 PM 46.0 °F 38.8 °F 21.0 °F 37% 29.78 in 10.0 mi SW 18.4 mph 28.8 mph N/A   Overcast
4:57 PM 45.0 °F 36.6 °F 19.9 °F 37% 29.76 in 10.0 mi SW 21.9 mph 27.6 mph N/A   Overcast
5:57 PM 43.0 °F 34.2 °F 23.0 °F 45% 29.75 in 10.0 mi SW 20.7 mph 26.5 mph 0.00 in   Overcast
6:57 PM 43.0 °F 34.0 °F 21.0 °F 42% 29.76 in 10.0 mi SSW 21.9 mph 29.9 mph N/A   Overcast
7:57 PM 43.0 °F 34.2 °F 21.0 °F 42% 29.77 in 10.0 mi SW 20.7 mph 28.8 mph N/A   Overcast
8:57 PM 42.1 °F 33.1 °F 21.9 °F 45% 29.70 in 10.0 mi SW 20.7 mph 28.8 mph N/A   Overcast
9:57 PM 42.1 °F 33.6 °F 21.9 °F 45% 29.69 in 10.0 mi SSW 18.4 mph 26.5 mph N/A   Overcast
10:57 PM 42.1 °F 33.3 °F 21.9 °F 45% 29.67 in 10.0 mi SW 19.6 mph 26.5 mph N/A   Overcast
11:57 PM 41.0 °F 31.4 °F 21.9 °F 47% 29.66 in 10.0 mi SW 21.9 mph 31.1 mph N/A   Mostly Cloudy